Location: Hohenfelde
(53.8441°N, 9.6220°E)
Time: 12:21:20
(UTC+00:00)

Okean 1 - Pass Details

Date: 14 July 2020
Orbit: 538 x 555 km, 82.5° (Epoch: 12 August)

Event Time Altitude Azimuth Distance (km) Brightness Sun altitude
Rises 00:14:45 0° 349° (N) 2,711 8.2 -13.8°
Reaches altitude 10° 00:16:55 10° 350° (N) 1,814 7.1 -13.8°
Maximum altitude 00:20:55 81° 78° (ENE) 555 3.3 -13.6°
Enters shadow 00:23:40 19° 165° (SSE) 1,314 4.7 -13.6°
